GFSNW_sfc_thetae_159.txt.gz
Theta_e
313 314 313 310 308 304 303 302 297 307 308 295 295 289 295 299 298 301 298 297 295 293 292 290 290 290 294 300 298 292 293 290 283 286 293 295 294 292 291 285 284 287 286 284
313 314 313 310 309 305 297 298 301 308 306 289 290 295 296 299 297 297 297 295 297 296 292 286 292 293 298 298 296 293 293 288 281 283 290 296 291 292 293 291 289 283 281 283
313 314 313 311 308 306 300 300 294 299 299 298 294 293 294 294 300 297 297 296 298 295 292 293 290 292 296 299 298 301 299 287 284 280 284 288 285 288 290 288 283 284 285 287
313 314 314 311 308 306 301 303 297 299 289 292 295 296 296 293 292 296 296 294 295 292 283 289 290 294 295 297 300 296 294 286 288 288 289 289 288 288 289 286 289 285 286 288
313 313 313 311 308 305 303 300 298 299 295 296 295 295 291 292 293 293 292 291 294 295 288 291 289 292 292 292 295 293 294 286 288 286 289 289 287 289 288 289 288 288 287 285
311 312 313 312 308 304 305 306 305 299 296 294 292 292 293 293 294 296 297 296 294 294 295 298 298 298 297 295 292 292 289 285 284 281 288 286 281 284 284 286 287 286 282 286
309 311 312 312 307 304 299 302 301 297 291 294 293 294 295 293 294 293 298 299 294 299 303 302 300 298 298 298 297 298 287 285 285 281 282 272 285 288 287 286 287 288 287 288
310 311 312 312 308 304 299 299 300 298 291 295 294 295 294 295 296 294 296 300 300 302 298 291 289 290 293 296 298 295 295 286 282 280 277 283 285 286 284 282 282 289 287 287
310 311 312 312 308 305 301 299 300 299 293 293 298 294 295 290 289 293 296 302 303 300 293 289 285 282 289 288 292 298 296 293 284 283 278 277 284 288 290 288 279 290 287 286
308 309 311 312 310 305 301 298 301 301 295 298 299 294 292 294 292 290 295 297 295 297 288 286 283 283 291 286 286 286 286 284 280 281 280 284 288 288 290 277 280 287 287 287
306 308 310 312 311 306 302 298 301 300 297 298 300 301 295 294 292 287 295 292 292 289 286 286 284 285 287 287 290 285 284 282 281 281 279 278 291 287 280 284 286 287 288 287
306 306 309 311 311 307 304 295 302 301 299 297 302 301 302 300 298 293 295 293 291 292 286 289 287 285 288 287 283 293 283 285 282 282 282 290 290 287 289 287 285 287 285 288
304 306 307 309 310 307 303 298 298 297 296 296 297 298 304 306 303 303 293 297 297 293 296 290 288 284 289 285 285 288 291 286 283 283 288 288 290 290 289 289 287 286 289 293
304 306 308 309 311 308 305 298 299 296 295 289 294 304 299 306 306 306 304 301 301 298 295 290 287 285 293 289 290 288 288 287 285 286 289 289 291 289 287 289 290 287 290 293
304 305 307 309 310 306 304 301 301 300 295 290 292 297 300 304 301 303 305 301 298 295 291 289 287 292 292 294 293 289 289 285 284 283 288 287 286 289 290 289 289 288 290 291
303 304 306 309 306 304 299 294 302 302 299 293 286 297 296 299 305 301 304 302 299 296 292 291 295 298 295 290 286 290 294 295 293 289 293 293 292 291 292 290 290 291 291 291
303 305 308 306 304 301 296 295 298 303 302 293 288 290 301 303 303 302 302 304 300 297 294 293 295 296 297 292 285 290 295 295 295 295 295 292 291 289 292 292 292 292 292 291
303 305 306 304 303 301 296 301 303 302 297 296 287 288 294 304 298 297 306 301 299 296 296 299 298 297 296 288 293 295 296 295 295 295 297 296 296 293 292 292 292 290 290 290
304 303 303 300 297 293 297 308 306 301 298 290 290 286 289 305 301 302 303 304 295 300 294 298 299 295 290 292 296 295 295 295 295 297 297 297 295 294 292 292 291 290 290 291
302 300 294 290 295 305 303 298 294 293 295 294 287 293 289 297 297 297 298 301 295 291 296 301 295 294 298 297 297 296 297 297 297 295 295 296 295 294 292 292 291 291 292 292
298 294 291 301 306 300 296 291 289 289 287 290 290 290 288 297 291 291 299 295 295 290 293 293 293 291 295 297 297 298 298 298 298 298 298 299 299 296 294 294 292 293 292 292
297 297 301 301 296 292 288 289 291 289 287 293 291 293 294 295 298 292 298 294 295 289 298 293 290 294 298 296 297 298 298 298 298 300 299 297 299 299 296 295 294 294 293 293
299 294 291 291 289 284 285 283 288 290 295 298 297 295 297 296 299 298 297 292 291 299 292 290 293 297 297 298 298 298 299 299 300 301 298 298 298 301 299 297 297 296 294 295
289 287 283 284 283 286 288 289 292 296 298 299 300 298 296 299 297 297 293 296 297 290 289 289 294 295 297 298 299 298 296 298 299 300 298 297 297 297 300 300 300 298 297 297
287 288 281 284 289 292 293 295 296 298 300 298 299 298 299 297 295 297 296 293 290 292 290 293 296 296 296 297 298 299 299 299 300 298 297 297 296 296 297 299 300 299 298 298
288 286 286 289 288 288 291 292 293 298 300 302 300 295 294 293 295 293 292 291 290 293 296 298 298 296 297 298 299 301 301 302 299 299 299 298 298 296 295 297 298 298 298 298
287 284 289 288 288 287 289 292 295 300 299 294 294 290 292 298 293 292 297 294 296 298 298 299 298 298 298 300 301 301 302 303 300 300 300 298 298 297 296 294 296 296 297 298

GFSNW_sfc_thetae_162.txt.gz
Theta_e
312 312 313 312 310 305 299 294 291 303 301 290 288 286 292 298 297 299 297 295 293 291 291 288 289 289 292 298 296 290 293 289 283 286 293 295 292 291 289 283 282 286 283 280
312 312 312 312 310 305 293 291 293 302 300 284 285 291 295 297 296 296 295 293 294 293 290 287 291 292 297 297 295 293 293 287 281 283 287 295 291 292 291 289 288 281 279 281
310 311 311 312 311 307 296 293 290 294 292 292 288 289 291 292 299 295 295 292 292 291 288 291 288 290 296 298 297 302 298 287 285 281 284 289 286 288 289 287 282 282 283 285
308 309 311 312 310 307 298 295 291 294 286 291 291 288 291 290 290 294 293 290 291 288 280 286 289 292 293 296 299 295 293 285 287 288 289 289 288 287 288 286 287 283 285 285
308 308 310 312 309 306 300 295 296 294 291 292 290 290 287 290 291 290 289 288 291 291 285 286 287 290 290 290 293 290 293 286 288 286 289 289 286 288 285 285 286 285 285 283
307 308 309 312 308 304 296 301 298 297 291 290 288 288 291 291 292 293 294 293 291 290 293 295 296 296 295 293 289 290 290 285 284 282 287 286 281 282 283 284 286 285 280 285
306 307 310 312 309 304 297 298 298 294 289 290 291 294 293 292 292 290 293 295 290 297 301 298 296 294 295 294 293 295 288 285 285 282 281 271 283 289 288 285 286 287 286 288
306 308 310 311 311 305 299 298 295 295 289 291 293 294 293 293 291 289 290 296 298 298 294 288 285 286 289 293 295 293 295 286 284 280 278 283 285 287 284 282 281 288 285 285
305 307 309 311 312 307 301 297 299 295 292 288 296 293 293 289 285 287 292 296 298 295 289 285 280 278 286 285 289 296 295 292 285 283 278 274 283 288 290 288 278 287 285 285
304 305 306 309 311 309 301 298 300 295 293 294 295 291 290 292 287 284 288 292 291 291 284 281 280 281 288 282 283 284 284 285 280 279 279 281 288 288 290 275 277 286 286 285
303 304 305 307 309 311 302 299 300 296 295 294 298 299 292 292 289 281 287 286 287 288 284 285 286 282 284 282 287 281 284 282 278 281 278 277 291 288 281 284 286 286 286 286
303 304 305 306 308 309 306 296 300 299 293 292 297 299 301 299 297 289 288 286 287 287 286 288 287 284 287 283 282 293 284 285 283 282 282 290 291 288 290 288 285 286 286 286
302 303 305 306 307 310 305 297 298 296 293 293 292 293 299 300 300 301 287 289 292 289 294 290 288 283 288 284 286 287 291 287 283 283 287 288 291 291 289 288 287 287 287 289
302 303 304 306 308 310 307 298 298 296 293 286 289 299 297 302 300 299 299 296 294 293 294 290 288 284 291 288 290 288 289 287 286 286 289 289 290 290 289 289 290 290 291 291
302 303 304 306 309 309 305 302 301 300 291 288 289 295 297 297 296 297 298 296 291 290 290 289 286 291 290 293 292 290 289 286 284 283 289 288 287 291 291 290 289 290 290 290
302 303 304 306 307 304 298 294 298 298 297 290 286 290 292 294 296 295 298 297 292 290 291 291 293 297 294 289 287 290 292 294 293 289 293 293 292 292 292 290 290 292 291 292
302 302 305 307 305 299 295 294 298 302 299 292 287 284 292 297 297 295 296 296 293 294 293 292 294 293 295 292 286 287 293 296 295 295 295 293 293 289 291 291 292 293 292 292
302 305 306 304 303 301 292 295 302 302 296 294 285 285 287 295 291 292 297 294 297 296 295 297 295 297 296 289 290 292 295 295 295 295 296 296 293 292 292 292 292 290 290 291
302 303 302 299 296 293 291 305 307 301 296 289 289 284 280 295 296 298 301 301 294 298 293 294 297 294 289 291 291 293 293 293 294 296 297 297 294 291 292 291 291 290 290 290
303 299 293 289 292 302 304 298 293 292 292 292 287 290 284 290 289 289 296 299 294 291 294 297 294 291 292 294 294 294 295 297 295 292 294 295 293 291 291 290 292 292 291 292
297 293 290 293 304 294 295 290 288 289 285 289 289 289 285 290 285 285 292 291 292 287 289 291 287 285 290 294 294 294 298 297 295 296 296 296 294 293 292 291 292 293 293 293
295 294 297 294 291 290 287 287 289 288 284 288 286 287 289 289 291 287 289 290 292 287 294 292 285 290 294 295 294 295 297 294 295 297 298 296 296 295 294 293 292 293 293 294
294 291 290 286 286 282 281 280 285 287 290 291 291 292 293 292 293 289 291 289 289 295 288 288 288 291 295 295 296 297 298 296 297 299 299 298 296 296 295 294 294 294 294 294
286 286 279 282 281 284 283 285 286 291 291 292 294 294 296 296 292 295 291 293 294 287 283 287 288 291 296 297 297 298 296 296 296 298 298 298 297 296 296 295 296 295 294 295
285 286 279 281 285 287 288 289 288 290 295 294 293 294 294 295 293 295 293 291 288 289 287 289 290 292 295 294 298 297 296 297 297 298 294 297 299 297 296 297 296 296 296 296
287 284 282 285 283 283 285 286 286 290 292 292 296 293 292 292 293 291 290 290 288 288 293 293 292 292 295 296 299 299 300 300 296 296 295 295 295 297 298 298 298 298 298 296
286 282 284 284 283 282 284 285 285 289 289 286 289 288 289 294 291 290 294 292 292 293 293 293 293 292 293 299 300 301 301 301 296 296 296 294 294 294 295 295 297 297 297 296

GFSNW_sfc_thetae_165.txt.gz
Theta_e
309 309 310 310 311 306 298 293 289 302 300 290 285 285 291 296 296 297 295 293 291 288 289 287 287 288 291 298 296 290 293 289 284 286 292 294 291 289 289 281 280 285 280 280
307 307 308 310 311 307 294 290 291 301 300 283 284 289 293 296 295 294 293 291 292 290 287 281 290 291 296 296 294 293 294 287 282 284 286 293 290 292 291 289 286 281 278 280
307 307 308 310 311 308 295 293 289 294 291 290 287 287 288 291 297 293 292 290 291 288 285 289 286 289 294 297 296 301 298 288 286 281 284 289 286 288 290 287 282 282 282 284
306 307 308 309 310 308 297 294 290 291 286 289 289 288 289 289 289 292 291 288 289 286 276 284 286 290 291 294 297 293 294 286 286 288 290 290 288 287 288 286 287 282 284 282
306 306 307 308 310 306 299 295 294 292 290 291 289 289 286 288 291 289 288 286 290 291 282 285 286 289 289 286 291 291 293 285 289 286 289 288 286 288 288 285 284 284 284 282
305 306 307 310 311 304 298 296 295 293 290 288 287 288 290 291 292 292 293 290 289 289 291 294 295 295 294 292 291 289 291 286 284 282 286 284 278 280 283 284 285 284 280 284
304 306 308 310 311 305 298 298 296 291 286 288 290 293 294 292 292 288 292 289 289 294 298 296 294 292 293 293 293 292 289 285 286 282 280 272 281 289 288 286 285 287 286 286
303 304 306 308 309 308 300 299 296 293 286 291 292 293 292 293 293 290 289 291 296 295 292 286 284 285 287 291 293 290 292 287 283 281 276 283 284 287 284 282 281 287 284 285
303 303 305 306 308 309 301 300 299 294 291 288 295 291 292 288 286 286 289 293 296 292 287 283 279 277 284 283 286 295 294 290 285 284 278 270 282 288 291 288 277 287 285 284
302 304 304 305 306 309 303 300 300 295 293 293 293 289 288 292 287 283 287 289 290 289 280 278 282 282 285 280 280 280 279 284 282 281 279 279 289 290 290 275 278 285 285 285
302 303 304 304 305 307 304 301 301 296 293 293 295 297 292 290 288 288 290 286 284 284 280 279 282 283 283 280 284 279 283 283 275 280 276 276 292 289 281 284 286 286 286 286
302 303 303 304 305 306 308 297 301 300 292 291 294 298 299 298 298 292 289 285 285 286 284 286 288 285 285 283 277 289 285 286 284 283 283 291 292 289 292 289 285 286 286 287
302 303 303 304 305 306 307 299 298 296 292 291 289 291 296 299 299 300 287 286 291 287 289 286 289 284 287 283 285 286 291 287 284 284 288 288 291 293 292 291 289 289 289 289
302 302 303 304 305 307 309 299 299 296 292 286 287 297 296 300 297 297 298 292 292 290 289 289 288 285 291 287 289 288 290 287 286 286 289 290 291 291 291 291 291 290 291 291
302 302 303 304 305 309 304 301 301 299 293 287 288 292 294 294 295 295 297 294 290 290 290 289 287 290 290 291 291 288 289 287 285 284 290 289 288 292 292 290 289 290 290 290
302 302 304 305 307 303 298 292 297 300 298 289 284 291 291 293 293 293 294 295 289 289 288 291 293 295 292 288 287 289 290 291 293 290 293 294 294 293 292 290 291 292 291 292
302 302 304 307 305 299 295 292 298 302 299 291 287 285 290 293 294 294 293 292 291 290 290 292 293 294 295 291 287 289 293 293 296 296 295 293 292 290 292 291 292 293 291 294
301 302 304 304 303 299 291 295 301 302 295 294 286 284 285 292 290 288 294 290 291 292 293 295 293 296 294 289 292 291 294 294 294 295 296 295 294 293 291 292 292 289 289 292
302 303 303 300 296 292 294 303 303 301 296 289 288 284 280 291 292 293 295 294 291 295 293 294 296 293 289 291 292 292 295 292 294 295 297 296 294 291 291 291 291 289 290 292
301 297 293 288 291 303 303 298 293 291 292 292 287 290 284 287 286 285 290 297 294 289 293 296 293 289 294 292 293 296 293 294 294 291 294 295 293 291 290 291 292 292 292 292
296 292 289 292 300 293 293 288 287 288 286 289 289 289 286 292 283 283 286 289 292 287 287 288 286 284 289 293 293 293 293 296 294 294 295 296 294 293 291 291 292 293 293 293
294 293 295 294 292 289 285 285 288 287 284 287 285 287 289 290 291 285 288 285 290 284 293 290 282 287 290 292 292 292 297 294 293 295 295 295 295 293 293 292 292 293 294 294
290 289 287 287 286 278 279 279 284 286 289 292 292 289 292 292 292 288 286 287 286 295 287 285 287 289 292 293 293 295 298 294 296 297 296 296 295 295 293 293 294 294 293 295
285 283 276 281 279 281 282 282 284 289 289 289 289 289 289 294 293 292 290 292 292 288 283 286 288 289 293 293 295 295 295 294 296 297 296 295 295 294 294 294 295 294 293 294
284 283 278 279 284 285 286 288 286 287 290 287 287 289 290 290 291 294 292 290 287 289 286 290 290 292 293 292 295 295 296 296 296 297 297 295 296 295 294 295 296 296 295 295
286 284 281 284 283 283 283 284 282 286 286 288 289 287 288 290 291 289 289 288 287 290 294 292 291 291 292 293 297 297 299 299 293 295 298 297 296 295 295 296 296 296 296 296
285 282 283 280 280 280 281 282 282 285 284 281 283 281 285 290 289 289 293 291 293 294 291 291 291 291 291 295 298 299 300 296 293 293 294 295 297 297 295 294 295 295 295 295

GFSNW_sfc_thetae_168.txt.gz
Theta_e
306 306 307 307 310 307 299 293 289 300 299 289 284 284 289 295 295 296 294 292 290 287 287 285 286 286 290 297 295 291 291 288 283 285 292 293 290 287 288 281 280 284 282 281
305 306 307 307 309 308 295 290 290 301 299 285 284 288 291 294 293 292 290 289 291 288 285 280 287 289 295 295 293 289 293 287 282 283 285 291 289 291 291 289 287 282 279 281
305 305 306 308 308 309 295 293 289 293 292 289 287 286 287 289 295 292 291 289 289 287 284 287 284 288 293 295 294 300 298 288 286 281 284 288 286 289 291 288 282 283 283 284
305 305 306 307 309 308 297 293 289 289 285 288 288 286 288 288 288 292 291 287 287 284 276 282 284 288 290 292 295 291 293 287 288 289 290 290 289 288 289 287 287 283 284 281
304 305 305 309 309 307 297 292 290 291 288 289 287 288 285 288 289 289 287 285 288 286 281 284 285 287 287 285 289 289 293 286 289 287 290 289 287 288 288 287 286 284 284 282
303 304 307 308 309 304 295 298 296 291 289 287 285 286 288 290 292 292 292 289 288 285 288 291 293 294 293 291 287 290 290 287 284 282 286 285 279 280 283 283 286 285 280 285
303 303 305 307 308 307 299 298 295 288 284 287 288 291 292 291 291 290 293 292 285 291 296 294 292 290 291 290 292 294 289 285 285 282 281 272 283 288 288 286 286 287 286 286
302 303 303 305 306 308 302 300 297 292 286 288 290 292 290 292 292 290 291 291 293 294 290 285 282 283 285 288 291 288 293 287 284 280 277 282 284 287 284 283 281 287 284 285
302 303 303 303 305 307 303 301 300 295 290 287 293 289 291 287 285 286 288 293 293 291 285 283 278 279 282 282 284 291 291 289 285 283 278 274 282 289 292 288 276 287 286 284
302 302 303 303 304 305 304 300 300 296 291 292 291 290 289 291 292 288 286 290 289 287 279 277 276 280 284 279 280 276 276 275 281 281 280 282 289 291 291 275 279 287 286 286
302 302 303 304 304 304 303 301 301 298 292 293 294 295 292 293 290 287 290 289 283 282 278 278 279 279 280 281 282 275 279 283 276 280 275 275 293 289 282 286 288 287 287 286
302 302 303 304 304 304 304 298 301 301 293 292 294 297 298 297 296 293 293 287 283 286 282 284 286 283 285 284 278 287 284 286 284 284 283 291 293 290 293 293 287 288 286 287
302 302 303 304 304 305 305 301 301 297 293 292 288 289 295 297 297 299 287 285 291 286 288 285 287 283 287 282 283 283 290 288 285 284 288 289 292 294 294 293 290 290 290 290
301 302 303 303 305 306 308 300 300 297 293 286 286 295 294 298 296 296 297 292 290 289 289 288 289 285 290 287 286 287 290 287 286 286 290 291 292 293 293 291 291 291 291 292
301 302 303 303 306 307 304 301 300 300 294 287 289 292 292 293 293 294 294 293 289 291 289 289 288 291 290 291 291 288 289 287 285 285 291 290 289 293 292 290 289 291 291 290
301 302 302 304 306 304 298 293 298 300 298 289 283 288 290 293 293 291 291 293 287 288 291 291 292 293 291 288 286 288 292 292 295 292 294 294 294 295 293 290 291 292 291 292
301 301 302 302 305 301 293 290 297 302 299 290 285 286 290 291 292 291 289 290 291 290 291 291 292 292 294 290 286 287 291 295 295 296 295 293 294 291 292 292 292 292 292 293
301 302 302 303 304 297 290 296 301 302 295 294 285 285 284 290 287 287 291 291 292 292 292 294 293 294 294 288 291 291 294 295 295 296 297 296 295 294 292 293 292 291 291 292
301 301 302 298 295 291 294 302 302 298 295 288 288 283 281 289 287 288 293 294 289 292 292 293 294 292 289 292 292 291 295 294 295 296 296 296 295 292 291 291 291 291 291 291
301 296 290 284 292 302 301 297 293 291 292 292 287 290 284 288 289 286 285 294 292 289 292 297 292 291 295 294 293 294 296 295 296 293 293 295 294 291 290 291 292 292 292 291
294 290 289 290 298 290 289 287 287 287 285 288 289 288 286 293 285 286 285 283 290 288 287 291 285 284 289 291 291 292 296 296 296 296 296 295 293 292 291 291 292 293 293 292
289 290 294 293 291 288 283 284 287 287 284 288 287 288 289 290 292 286 287 284 287 284 290 290 283 288 290 291 292 292 296 295 295 296 295 294 293 293 292 292 292 293 294 294
288 289 287 286 283 280 279 278 279 284 288 289 288 286 289 290 292 289 288 284 284 292 289 285 287 289 291 291 292 294 297 296 296 296 296 295 294 294 293 293 294 294 294 294
284 282 275 278 278 280 280 280 283 289 289 288 285 285 286 289 291 292 287 291 291 287 284 286 291 291 291 292 293 294 295 296 295 295 296 294 293 293 294 294 294 294 293 294
283 282 276 279 282 282 283 284 284 287 286 283 282 284 287 287 288 290 291 288 286 288 287 291 293 293 292 291 293 294 296 296 295 296 295 295 295 294 294 295 295 295 295 294
284 283 279 281 281 281 281 282 282 284 284 283 283 280 283 285 288 288 287 287 286 289 294 294 292 291 290 292 294 296 299 299 296 296 296 296 295 294 294 296 296 296 295 294
282 281 283 280 279 280 280 281 280 283 281 279 280 278 279 287 284 287 291 287 288 293 295 292 291 290 291 294 296 298 300 294 295 297 297 296 297 297 296 294 295 295 295 295